Time,TemperatureF,DewpointF,PressureIn,WindDirection,WindDirectionDegrees,WindSpeedMPH,WindSpeedGustMPH,Humidity,HourlyPrecipIn,Conditions,Clouds,dailyrainin,SoftwareType,DateUTC
2013-10-10 00:24:00,50.0,43.0,30.27,ESE,113,0.0,0.0,77,0.00,,,0.00,,2013-10-10 04:24:00,
2013-10-10 00:50:00,50.0,42.0,30.27,ESE,113,0.0,0.0,75,0.00,,,0.00,,2013-10-10 04:50:00,
2013-10-10 01:23:00,49.0,43.0,30.26,ESE,113,0.0,0.0,79,0.00,,,0.00,,2013-10-10 05:23:00,
2013-10-10 01:43:00,49.0,42.0,30.26,ESE,113,0.0,0.0,78,0.00,,,0.00,,2013-10-10 05:43:00,
2013-10-10 01:53:00,50.0,43.0,30.25,ESE,113,0.0,0.0,78,0.00,,,0.00,,2013-10-10 05:53:00,
2013-10-10 02:13:00,50.0,44.0,30.25,ESE,113,0.0,1.0,80,0.00,,,0.00,,2013-10-10 06:13:00,
2013-10-10 02:22:00,49.0,42.0,30.26,ESE,113,0.0,2.0,77,0.00,,,0.00,,2013-10-10 06:22:00,
2013-10-10 02:42:00,49.0,42.0,30.26,ESE,113,0.0,0.0,77,0.00,,,0.00,,2013-10-10 06:42:00,
2013-10-10 02:53:00,49.0,42.0,30.25,ESE,113,0.0,0.0,78,0.00,,,0.00,,2013-10-10 06:53:00,
2013-10-10 03:11:00,49.0,42.0,30.25,ESE,113,0.0,1.0,77,0.00,,,0.00,,2013-10-10 07:11:00,
2013-10-10 03:21:00,49.0,43.0,30.25,ESE,113,0.0,0.0,81,0.00,,,0.00,,2013-10-10 07:21:00,
2013-10-10 03:42:00,49.0,43.0,30.24,ESE,113,0.0,0.0,79,0.00,,,0.00,,2013-10-10 07:42:00,
2013-10-10 03:52:00,48.0,42.0,30.24,ESE,113,0.0,1.0,80,0.00,,,0.00,,2013-10-10 07:52:00,
2013-10-10 04:11:00,49.0,42.0,30.24,ESE,113,0.0,0.0,78,0.00,,,0.00,,2013-10-10 08:11:00,
2013-10-10 04:22:00,49.0,42.0,30.23,ESE,113,0.0,0.0,77,0.00,,,0.00,,2013-10-10 08:22:00,
2013-10-10 04:43:00,49.0,42.0,30.23,ESE,113,0.0,0.0,78,0.00,,,0.00,,2013-10-10 08:43:00,
2013-10-10 04:52:00,49.0,43.0,30.23,ESE,113,0.0,0.0,79,0.00,,,0.00,,2013-10-10 08:52:00,
2013-10-10 05:22:00,48.0,43.0,30.23,ESE,113,0.0,0.0,83,0.00,,,0.00,,2013-10-10 09:22:00,
2013-10-10 05:43:00,48.0,43.0,30.23,ESE,113,0.0,0.0,84,0.00,,,0.00,,2013-10-10 09:43:00,
2013-10-10 05:53:00,48.0,42.0,30.23,ESE,113,0.0,0.0,81,0.00,,,0.00,,2013-10-10 09:53:00,
2013-10-10 06:23:00,48.0,43.0,30.23,ESE,113,0.0,0.0,83,0.00,,,0.00,,2013-10-10 10:23:00,
2013-10-10 06:42:00,48.0,43.0,30.24,ESE,113,0.0,0.0,84,0.00,,,0.00,,2013-10-10 10:42:00,
2013-10-10 06:53:00,48.0,43.0,30.24,ESE,113,0.0,0.0,84,0.00,,,0.00,,2013-10-10 10:53:00,
2013-10-10 07:22:00,47.0,43.0,30.23,ESE,113,0.0,0.0,86,0.00,,,0.00,,2013-10-10 11:22:00,
2013-10-10 07:42:00,46.0,42.0,30.23,ESE,113,0.0,0.0,85,0.00,,,0.00,,2013-10-10 11:42:00,
2013-10-10 07:57:00,46.0,42.0,30.24,ESE,113,0.0,0.0,86,0.00,,,0.00,,2013-10-10 11:57:00,
2013-10-10 08:12:00,46.0,42.0,30.24,ESE,113,0.0,0.0,86,0.00,,,0.00,,2013-10-10 12:12:00,
2013-10-10 08:21:00,47.0,43.0,30.24,ESE,113,0.0,0.0,86,0.00,,,0.00,,2013-10-10 12:21:00,
2013-10-10 08:42:00,47.0,43.0,30.24,ESE,113,0.0,1.0,86,0.00,,,0.00,,2013-10-10 12:42:00,
2013-10-10 08:52:00,48.0,44.0,30.24,ESE,113,0.0,0.0,85,0.00,,,0.00,,2013-10-10 12:52:00,
2013-10-10 09:12:00,49.0,44.0,30.24,ESE,113,0.0,0.0,82,0.00,,,0.00,,2013-10-10 13:12:00,
2013-10-10 09:21:00,51.0,45.0,30.24,ESE,113,0.0,0.0,79,0.00,,,0.00,,2013-10-10 13:21:00,
2013-10-10 09:42:00,53.0,46.0,30.24,ESE,113,0.0,0.0,76,0.00,,,0.00,,2013-10-10 13:42:00,
2013-10-10 09:52:00,56.0,47.0,30.24,East,84,0.0,2.0,73,0.00,,,0.00,,2013-10-10 13:52:00,
2013-10-10 10:11:00,57.0,47.0,30.23,NW,324,0.0,3.0,70,0.00,,,0.00,,2013-10-10 14:11:00,
2013-10-10 10:21:00,58.0,47.0,30.23,NNW,330,0.0,2.0,68,0.00,,,0.00,,2013-10-10 14:21:00,
2013-10-10 10:42:00,59.0,46.0,30.22,NW,310,1.0,3.0,61,0.00,,,0.00,,2013-10-10 14:42:00,
2013-10-10 10:52:00,61.0,48.0,30.22,ENE,63,1.0,4.0,63,0.00,,,0.00,,2013-10-10 14:52:00,
2013-10-10 11:22:00,63.0,48.0,30.23,NE,53,0.0,3.0,58,0.00,,,0.00,,2013-10-10 15:22:00,
2013-10-10 11:43:00,63.0,48.0,30.23,ENE,59,2.0,4.0,58,0.00,,,0.00,,2013-10-10 15:43:00,
2013-10-10 11:54:00,60.0,45.0,30.23,ESE,117,0.0,3.0,58,0.00,,,0.00,,2013-10-10 15:54:00,
2013-10-10 12:23:00,64.0,48.0,30.22,North,5,0.0,3.0,56,0.00,,,0.00,,2013-10-10 16:23:00,
2013-10-10 12:42:00,65.0,47.0,30.22,ESE,108,1.0,3.0,52,0.00,,,0.00,,2013-10-10 16:42:00,
2013-10-10 12:53:00,66.0,47.0,30.22,ESE,104,2.0,5.0,50,0.00,,,0.00,,2013-10-10 16:53:00,
2013-10-10 13:12:00,66.0,47.0,30.21,ENE,58,2.0,3.0,50,0.00,,,0.00,,2013-10-10 17:12:00,
2013-10-10 13:23:00,66.0,45.0,30.20,NE,49,0.0,2.0,46,0.00,,,0.00,,2013-10-10 17:23:00,
2013-10-10 13:42:00,67.0,44.0,30.19,East,84,1.0,5.0,43,0.00,,,0.00,,2013-10-10 17:42:00,
2013-10-10 13:53:00,68.0,49.0,30.19,ESE,112,0.0,4.0,50,0.00,,,0.00,,2013-10-10 17:53:00,
2013-10-10 14:12:00,69.0,51.0,30.18,ENE,73,0.0,3.0,53,0.00,,,0.00,,2013-10-10 18:12:00,
2013-10-10 14:21:00,69.0,46.0,30.18,SE,136,0.0,3.0,43,0.00,,,0.00,,2013-10-10 18:21:00,
2013-10-10 14:42:00,68.0,48.0,30.17,ENE,64,1.0,5.0,48,0.00,,,0.00,,2013-10-10 18:42:00,
2013-10-10 14:52:00,69.0,46.0,30.17,SW,235,0.0,5.0,44,0.00,,,0.00,,2013-10-10 18:52:00,
2013-10-10 15:11:00,71.0,48.0,30.17,SE,140,1.0,4.0,44,0.00,,,0.00,,2013-10-10 19:11:00,
2013-10-10 15:22:00,70.0,48.0,30.16,SE,133,1.0,4.0,46,0.00,,,0.00,,2013-10-10 19:22:00,
2013-10-10 15:42:00,71.0,48.0,30.16,South,182,1.0,4.0,44,0.00,,,0.00,,2013-10-10 19:42:00,
2013-10-10 15:53:00,72.0,49.0,30.16,ESE,111,0.0,3.0,44,0.00,,,0.00,,2013-10-10 19:53:00,
2013-10-10 16:22:00,71.0,49.0,30.15,ENE,67,0.0,2.0,46,0.00,,,0.00,,2013-10-10 20:22:00,
2013-10-10 16:42:00,70.0,47.0,30.15,ENE,61,2.0,3.0,44,0.00,,,0.00,,2013-10-10 20:42:00,
2013-10-10 16:52:00,69.0,48.0,30.15,ENE,59,2.0,4.0,47,0.00,,,0.00,,2013-10-10 20:52:00,
2013-10-10 17:22:00,66.0,47.0,30.15,ENE,57,0.0,3.0,51,0.00,,,0.00,,2013-10-10 21:22:00,
2013-10-10 17:44:00,66.0,49.0,30.15,ENE,64,0.0,2.0,54,0.00,,,0.00,,2013-10-10 21:44:00,
2013-10-10 17:54:00,65.0,49.0,30.15,ENE,64,0.0,2.0,56,0.00,,,0.00,,2013-10-10 21:54:00,
2013-10-10 18:24:00,64.0,47.0,30.15,ENE,64,0.0,1.0,53,0.00,,,0.00,,2013-10-10 22:24:00,
2013-10-10 18:43:00,63.0,48.0,30.15,ENE,64,0.0,1.0,57,0.00,,,0.00,,2013-10-10 22:43:00,
2013-10-10 18:53:00,62.0,48.0,30.15,ENE,64,0.0,1.0,61,0.00,,,0.00,,2013-10-10 22:53:00,
2013-10-10 19:23:00,61.0,47.0,30.15,ENE,64,0.0,1.0,59,0.00,,,0.00,,2013-10-10 23:23:00,
2013-10-10 19:53:00,60.0,47.0,30.15,ENE,64,0.0,0.0,63,0.00,,,0.00,,2013-10-10 23:53:00,
2013-10-10 20:11:00,60.0,46.0,30.15,ENE,64,0.0,0.0,60,0.00,,,0.00,,2013-10-11 00:11:00,
2013-10-10 20:22:00,59.0,48.0,30.14,ENE,64,0.0,0.0,67,0.00,,,0.00,,2013-10-11 00:22:00,
2013-10-10 20:42:00,58.0,49.0,30.14,ENE,64,0.0,0.0,71,0.00,,,0.00,,2013-10-11 00:42:00,
2013-10-10 20:52:00,58.0,47.0,30.14,ENE,64,0.0,0.0,68,0.00,,,0.00,,2013-10-11 00:52:00,
2013-10-10 21:12:00,58.0,46.0,30.14,ENE,64,0.0,0.0,65,0.00,,,0.00,,2013-10-11 01:12:00,
2013-10-10 21:22:00,58.0,47.0,30.14,ENE,64,0.0,1.0,66,0.00,,,0.00,,2013-10-11 01:22:00,
2013-10-10 21:42:00,58.0,48.0,30.14,ENE,64,0.0,0.0,69,0.00,,,0.00,,2013-10-11 01:42:00,
2013-10-10 21:52:00,58.0,49.0,30.14,ENE,64,0.0,0.0,71,0.00,,,0.00,,2013-10-11 01:52:00,
2013-10-10 22:12:00,58.0,48.0,30.14,ENE,64,0.0,0.0,70,0.00,,,0.00,,2013-10-11 02:12:00,
2013-10-10 22:22:00,58.0,48.0,30.14,ENE,64,0.0,0.0,69,0.00,,,0.00,,2013-10-11 02:22:00,
2013-10-10 22:42:00,58.0,48.0,30.14,ENE,64,0.0,1.0,69,0.00,,,0.00,,2013-10-11 02:42:00,
2013-10-10 22:52:00,58.0,48.0,30.14,ENE,64,0.0,1.0,69,0.00,,,0.00,,2013-10-11 02:52:00,
2013-10-10 23:23:00,57.0,48.0,30.14,ENE,64,0.0,2.0,72,0.00,,,0.00,,2013-10-11 03:23:00,
2013-10-10 23:44:00,56.0,48.0,30.14,ENE,64,1.0,2.0,74,0.00,,,0.00,,2013-10-11 03:44:00,
2013-10-10 23:54:00,57.0,50.0,30.13,ENE,64,0.0,1.0,76,0.00,,,0.00,,2013-10-11 03:54:00,